Flag for U.S.A. Weather past 2 weeks in Babylon, New York, U.S.A.

Now
58 °F

Passing clouds.


Feels Like: 55 °F
Forecast: 52 / 64 °F
Wind: 13 mph from Southeast

Location: Republic Airport

Current Time: Jun 3, 2015 at 7:48:43 PM

Latest Report: Jun 3, 2015 at 6:53 PM


Visibility: 10 mi

Pressure: 30.21 "Hg

Humidity: 75%

Dew point: 50 °F

Location of BabylonLocation

Historic Weather in Babylon — Graph

°F

Babylon temperature yesterday

Maximum temperature yesterday: 54 °F (at 1:53 PM)
Minimum temperature yesterday: 50 °F (at 1:01 AM)
Average temperature yesterday: 52 °F

Past Weeks' High & Low Weather Summary

 TemperatureHumidityPressure
High79 °F (May 29, 12:53 PM)100% (May 30, 6:00 AM)30.41 "Hg (May 30, 6:00 AM)
Low50 °F (May 21, 4:53 AM)23% (May 23, 3:53 PM)29.76 "Hg (May 19, 10:53 PM)
Average63 °F71%30.14 "Hg
* Reported May 19 6:53 PM — Jun 3 6:53 PM, Babylon, Weather by CustomWeather, © 2015

Note: Actual official high and low records may vary slightly from our data, if they occured in-between our weather recording intervals... More about our weather records

Advertising

Babylon weather history for previous 24 hours

 ConditionsComfort  
Time TempWeatherWind HumidityBarometerVisibility
6:53 PM
Wed, Jun 3
58 °FPassing clouds.13 mph75%30.21 "Hg10 mi
5:53 PM60 °FSunny.10 mph69%30.20 "Hg10 mi
4:53 PM61 °FSunny.12 mph67%30.20 "Hg10 mi
3:53 PM62 °FSunny.10 mph67%30.20 "Hg10 mi
2:53 PM63 °FPassing clouds.13 mph68%30.20 "Hg10 mi
1:53 PM64 °FSunny.8 mph68%30.21 "Hg10 mi
12:53 PM66 °FPassing clouds.6 mph54%30.22 "Hg10 mi
11:53 AM65 °FPassing clouds.12 mph59%30.22 "Hg10 mi
10:53 AM63 °FPartly sunny.8 mph60%30.23 "Hg10 mi
9:53 AM59 °FPartly sunny.7 mph72%30.24 "Hg10 mi
8:53 AM56 °FMore clouds than sun.7 mph81%30.23 "Hg10 mi
7:53 AM54 °FMore clouds than sun.6 mph86%30.23 "Hg10 mi
6:53 AM52 °FOvercast.5 mph89%30.22 "Hg10 mi
5:53 AM51 °FOvercast.3 mph92%30.21 "Hg10 mi
4:53 AM51 °FPassing clouds.6 mph89%30.19 "Hg10 mi
3:53 AM51 °FOvercast.5 mph89%30.18 "Hg10 mi
2:53 AM51 °FMostly cloudy.5 mph92%30.18 "Hg10 mi
1:53 AM52 °FLow clouds.6 mph89%30.19 "Hg10 mi
12:53 AM52 °FMostly cloudy.3 mph93%30.18 "Hg10 mi
12:00 AM53 °FOvercast.6 mph89%30.18 "Hg10 mi
10:53 PM
Tue, Jun 2
53 °FOvercast.5 mph89%30.19 "Hg10 mi
9:53 PM53 °FMostly cloudy.6 mph89%30.17 "Hg10 mi
9:03 PM52 °FLight rain. Mostly cloudy.5 mph93%30.16 "Hg10 mi
8:53 PM53 °FMostly cloudy.5 mph89%30.16 "Hg10 mi
7:53 PM53 °FLight rain. More clouds than sun.7 mph89%30.15 "Hg10 mi
7:00 PM53 °FLight rain. Cloudy.6 mph89%30.15 "Hg10 mi
Weather by CustomWeather, © 2015

See weather overviewHow to use our weather pages